Location: Guferjoch
(46.7462°N, 8.4506°E)
Time: 00:22:19
(UTC+00:00)

Cosmos 2100 Rocket - Pass Details

Date: 14 July 2020
Orbit: 955 x 1002 km, 82.9° (Epoch: 03 August)

Event Time Altitude Azimuth Distance (km) Brightness Sun altitude
Exits shadow 00:45:06 32° 179° (S) 1,619 4.6 -19.7°
Maximum altitude 00:48:13 80° 96° (E) 998 4.0 -19.5°
Drops below altitude 10° 00:54:28 10° 11° (N) 2,724 7.5 -19.1°
Sets 00:56:58 0° 10° (N) 3,669 8.6 -19.0°
